Satellite-Ground Cal/Val Region Overpasses Predictions

Prediction of Satellite NPP Overpassing Cal/Val Region: PacNW

Region Location: (Latitude: 10.00, Longitude: 139.50) to (Latitude: 22.70, Longitude: 165.60).

Table of predicted overpasses for the next 14.0 days since TLE Epoch: 10/5/2013
Interval Starting Time Starting Location Ending Time Ending Location
1 10/05/2013 14:53:12 ( 22.66, 161.81) 10/05/2013 14:56:47 ( 10.04, 158.80)
2 10/06/2013 03:43:48 ( 10.04, 143.94) 10/06/2013 03:47:23 ( 22.66, 140.93)
3 10/06/2013 14:35:19 ( 18.69, 165.59) 10/06/2013 14:37:47 ( 10.00, 163.55)
4 10/06/2013 16:15:41 ( 22.68, 141.20) 10/06/2013 16:17:40 ( 15.70, 139.50)
5 10/07/2013 03:24:47 ( 10.02, 148.70) 10/07/2013 03:28:22 ( 22.64, 145.69)
6 10/07/2013 15:56:39 ( 22.70, 145.96) 10/07/2013 16:00:15 ( 10.02, 142.94)
7 10/08/2013 03:05:45 ( 10.00, 153.47) 10/08/2013 03:09:21 ( 22.68, 150.44)
8 10/08/2013 15:37:39 ( 22.66, 150.71) 10/08/2013 15:41:14 ( 10.04, 147.70)
9 10/09/2013 02:46:45 ( 10.05, 158.22) 10/09/2013 02:50:20 ( 22.67, 155.20)
10 10/09/2013 15:18:37 ( 22.67, 155.47) 10/09/2013 15:22:12 ( 10.05, 152.46)
11 10/10/2013 02:27:43 ( 10.03, 162.98) 10/10/2013 02:31:18 ( 22.65, 159.97)
12 10/10/2013 14:59:36 ( 22.69, 160.24) 10/10/2013 15:03:12 ( 10.01, 157.21)
13 10/11/2013 02:11:17 ( 19.12, 165.60) 10/11/2013 02:12:18 ( 22.69, 164.71)
14 10/11/2013 03:50:12 ( 10.02, 142.36) 10/11/2013 03:53:37 ( 22.05, 139.50)
15 10/11/2013 14:40:35 ( 22.65, 164.98) 10/11/2013 14:44:10 ( 10.03, 161.98)
16 10/11/2013 16:22:05 ( 22.64, 139.61) 10/11/2013 16:22:12 ( 22.23, 139.51)
17 10/12/2013 03:31:10 ( 10.00, 147.13) 10/12/2013 03:34:46 ( 22.68, 144.10)
18 10/12/2013 16:03:04 ( 22.66, 144.37) 10/12/2013 16:06:39 ( 10.04, 141.36)
19 10/13/2013 03:12:10 ( 10.05, 151.87) 10/13/2013 03:15:45 ( 22.67, 148.86)
20 10/13/2013 15:44:03 ( 22.67, 149.13) 10/13/2013 15:47:38 ( 10.05, 146.12)
21 10/14/2013 02:53:08 ( 10.03, 156.64) 10/14/2013 02:56:43 ( 22.66, 153.63)
22 10/14/2013 15:25:01 ( 22.68, 153.90) 10/14/2013 15:28:37 ( 10.01, 150.87)
23
